Location: Unspecified
(35.6961°N, 0.0000°E)
Time: 13:58:06
(UTC+00:00)

Altair - Visible Passes

Search period start: 21 May 2019 00:00
Search period end: 31 May 2019 00:00
Orbit: 1501 x 1683 km, 47.2° (Epoch: 20 May)

Date Brightness Start Highest point End Pass type
(mag) Time Alt. Az. Time Alt. Az. Time Alt. Az.
21 May 8.7 02:08:23 22° SSE 02:12:37 29° SE 02:20:48 10° ENE visible
21 May 7.8 04:06:28 10° SW 04:16:37 89° SE 04:26:50 10° NE visible
22 May 8.7 01:44:34 23° SSE 01:47:32 26° SE 01:55:19 10° ENE visible
22 May 7.7 03:42:35 15° SW 03:51:25 84° SE 04:01:37 10° ENE visible
23 May 8.8 01:20:42 22° SE 01:22:27 23° SE 01:29:47 10° ENE visible
23 May 7.7 03:18:43 21° SW 03:26:13 79° SE 03:36:23 10° ENE visible
24 May 8.9 00:56:48 20° SE 00:57:23 21° SE 01:04:10 10° E visible
24 May 7.7 02:54:48 27° SW 03:01:01 74° SE 03:11:09 10° ENE visible
25 May 9.0 00:32:49 18° ESE 00:32:49 18° ESE 00:38:27 10° E visible
25 May 7.7 02:30:49 34° SSW 02:35:50 68° SE 02:45:55 10° ENE visible
26 May 9.2 00:08:48 15° ESE 00:08:48 15° ESE 00:12:36 10° E visible
26 May 7.7 02:06:48 41° SSW 02:10:40 63° SE 02:20:39 10° ENE visible
26 May 8.1 04:05:52 10° W 04:15:49 58° NNW 04:25:49 10° NE visible
26 May 9.3 23:44:44 12° ESE 23:44:44 12° ESE 23:46:32 10° E visible
27 May 7.8 01:42:43 46° S 01:45:30 59° SE 01:55:23 10° ENE visible
27 May 8.0 03:40:43 11° WSW 03:50:31 60° NNW 04:00:34 10° NE visible
28 May 7.7 01:18:35 49° SSE 01:20:21 54° SE 01:30:06 10° ENE visible
28 May 7.9 03:16:35 15° WSW 03:25:13 63° NNW 03:35:20 10° NE visible
29 May 7.8 00:54:24 49° SSE 00:55:13 49° SE 01:04:49 10° ENE visible
29 May 7.9 02:52:23 20° WSW 02:59:56 66° NNW 03:10:06 10° NE visible
30 May 7.9 00:30:09 45° SE 00:30:09 45° SE 00:39:30 10° ENE visible
30 May 7.8 02:28:08 25° WSW 02:34:41 70° NNW 02:44:52 10° NE visible
